Starlink 11482

operational
NORAD ID: 62520 Int'l Des: 2025-004 Owner: SPXS Country: US Constellation: starlink
LEOCIRCULAR

Starlink 11482について

説明を読み込み中...

リアルタイム位置

3D地球を読み込み中...

次回通過

高度履歴

Altitude vs Time

uPlot chart will show altitude changes over time

軌道要素

1 62520U 25004K 26034.36415785 .00217435 00000-0 16512-2 0 9999
2 62520 42.9982 277.3054 0000765 22.0158 338.0742 15.70880404 61815
Epoch: Feb 3, 2026 • Age: 21 hours

現在のステータス

高度 363.2 km
速度 7.69 km/s
衛星直下点 -30.17°S, 10.76°E
打ち上げ日 Jan 8, 2025
運用期間 1 years
タイプ internet

技術仕様

分類 Payload
質量 960.00 kg
乾燥質量 910.00 kg
総質量 960.00 kg
長さ 0.30 m
直径 4.10 m
スパン 29.00 m
形状 Box + pan
製造者 SPXS
バスタイプ Starlink V2MD
フェーズステータス In Orbit
所有者/国 SPXS/US

大規模コンステレーション

Loading constellations...